"2009-11-22 00:00:00",1437406,14.66,142.1,3.273,0.609,12.18,103.008,6.978,8.2,20.16,0,110,13.37,7.75,104.1
"2009-11-22 00:00:30",1437407,14.5,142.6,3.998,0.595,12.05,103.0083,6.979,8.2,20.22,0,110,13.37,7.76,104.6
"2009-11-22 00:01:00",1437408,14.42,143.5,4.42,0.634,11.82,103.0072,6.976,8.21,21.03,0,110,13.37,7.75,105.5
"2009-11-22 00:01:30",1437409,14.3,143.5,4.155,0.665,12.02,102.9956,6.946,8.2,21.19,0,110,13.37,7.72,105.5
"2009-11-22 00:02:00",1437410,14.08,145.8,4.279,0.426,11.97,102.9846,6.918,8.2,21.25,0,110,13.37,7.69,107.8
"2009-11-22 00:02:30",1437411,13.47,146.1,4.158,0.72,11.63,102.982,6.912,8.19,21.87,0,110,13.38,7.69,108.1
"2009-11-22 00:03:00",1437412,13.51,148,4.06,0.687,11.66,102.982,6.912,8.2,22.63,0,110,13.38,7.69,110.0
"2009-11-22 00:03:30",1437413,12.41,147.9,4.241,0.647,11.3,102.982,6.912,8.19,23.31,0,110,13.38,7.69,109.9
"2009-11-22 00:04:00",1437414,12.56,150,4.026,0.671,11.41,102.9674,6.874,8.18,24.23,0,110,13.39,7.65,112.0
"2009-11-22 00:04:30",1437415,11.88,150.9,3.442,0.912,10.95,102.9481,6.825,8.18,24.84,0,110,13.39,7.60,112.9
"2009-11-22 00:05:00",1437416,11.99,149.7,4.427,0.734,11.1,102.945,6.817,8.16,25.3,0,110,13.39,7.59,111.7
"2009-11-22 00:05:30",1437417,11.36,151.1,3.517,0.871,10.69,102.9171,6.746,8.13,26,0,110,13.39,7.52,113.1
"2009-11-22 00:06:00",1437418,10.9,153.2,3.026,0.87,10.63,102.9103,6.728,8.11,27,0,110,13.39,7.50,115.2
"2009-11-22 00:06:30",1437419,10.84,152.2,4.774,0.857,10.6,102.8807,6.653,8.08,26.61,0,110,13.39,7.43,114.2
"2009-11-22 00:07:00",1437420,10.66,152.6,4.913,0.836,10.38,102.8745,6.637,8.06,26.86,0,110,13.39,7.41,114.6
"2009-11-22 00:07:30",1437421,11.25,149.7,3.316,0.931,10.42,102.8493,6.573,8.02,26.96,0,110,13.39,7.35,111.7
"2009-11-22 00:08:00",1437422,10.56,153.8,4.212,0.529,10.68,102.8322,6.529,7.973,26.75,0,110,13.39,7.30,115.8
"2009-11-22 00:08:30",1437423,10.64,154,5.651,0.743,10.21,102.8146,6.484,7.923,27.35,0,110,13.39,7.26,116.0
"2009-11-22 00:09:00",1437424,10.53,155.6,4.043,0.682,10.22,102.7949,6.434,7.902,27.94,0,110,13.39,7.21,117.6
"2009-11-22 00:09:30",1437425,9.66,150.9,5.079,0.618,9.95,102.7852,6.409,7.872,28.7,0,110,13.39,7.18,112.9
"2009-11-22 00:10:00",1437426,7.371,147.3,7.039,1.295,7.475,102.7572,6.337,7.764,29.31,0,110,13.39,7.11,109.3
"2009-11-22 00:10:30",1437427,7.011,148.8,6.946,1.31,7.355,102.7534,6.328,7.514,29.64,0,110,13.39,7.10,110.8
"2009-11-22 00:11:00",1437428,5.609,156,11.95,0.782,5.787,102.7224,6.248,7.431,29.98,0,110,13.43,7.02,118.0
"2009-11-22 00:11:30",1437429,8.45,153.7,5.82,1.281,10.39,102.6971,6.184,7.652,30.58,0,110,13.4,6.96,115.7
"2009-11-22 00:12:00",1437430,7.995,168.1,21.92,1.558,11.11,102.672,6.12,7.609,29.23,0,110,13.4,6.89,130.1
"2009-11-22 00:12:30",1437431,6.393,168.1,27.61,1.728,10.88,102.6418,6.042,7.554,31.95,0,110,13.4,6.82,130.1
"2009-11-22 00:13:00",1437432,8.01,155,7.402,1.061,10.1,102.6232,5.995,7.508,30.09,0,110,13.4,6.77,117.0
"2009-11-22 00:13:30",1437433,8.43,150.9,5.852,1.38,8.08,102.6073,5.954,7.165,28.56,0,110,13.4,6.73,112.9
"2009-11-22 00:14:00",1437434,7.777,147.1,5.494,0.805,8.02,102.6073,5.954,7.262,28.34,0,109.9,13.4,6.73,109.1
"2009-11-22 00:14:30",1437435,8.64,151.4,7.033,1.343,9.23,102.587,5.902,7.244,28.31,0,109.9,13.4,6.68,113.4
"2009-11-22 00:15:00",1437436,9.3,155.4,5.454,0.992,11.48,102.5757,5.873,7.312,27.32,0,109.9,13.4,6.65,117.4
"2009-11-22 00:15:30",1437437,9.38,162.4,5.758,0.877,11.11,102.5763,5.875,7.284,27.77,0,109.9,13.4,6.65,124.4
"2009-11-22 00:16:00",1437438,8.76,158.9,7.417,1.012,10.43,102.5763,5.875,7.201,28.68,0,109.9,13.4,6.65,120.9
"2009-11-22 00:16:30",1437439,7.691,151.7,5.554,0.957,7.62,102.5686,5.855,6.983,27.45,0,109.9,13.4,6.63,113.7
"2009-11-22 00:17:00",1437440,8.36,155.2,8.57,1.132,9.01,102.563,5.841,7.032,27.72,0,109.9,13.4,6.61,117.2
"2009-11-22 00:17:30",1437441,9.22,154.4,5.546,1.129,10.41,102.5525,5.814,7.161,28.4,0,109.9,13.4,6.59,116.4
"2009-11-22 00:18:00",1437442,8.96,159.9,6.368,1.098,10.9,102.5432,5.791,7.171,28.81,0,109.9,13.4,6.56,121.9
"2009-11-22 00:18:30",1437443,9.43,158.1,5.369,1.06,10.75,102.5424,5.788,7.167,28.73,0,109.9,13.4,6.56,120.1
"2009-11-22 00:19:00",1437444,9.66,159.7,5.596,1.289,10.39,102.5424,5.788,7.073,27.95,0,109.9,13.41,6.56,121.7
"2009-11-22 00:19:30",1437445,8.16,150.7,5.67,0.936,8.34,102.5424,5.788,7.069,28.06,0,109.9,13.41,6.56,112.7
"2009-11-22 00:20:00",1437446,8.19,152,5.059,1.161,7.829,102.5424,5.788,6.888,27.87,0,109.9,13.41,6.56,114.0
"2009-11-22 00:20:30",1437447,8.95,160.7,6.549,1.12,10.62,102.5424,5.788,7.105,28.19,0,109.9,13.42,6.56,122.7
"2009-11-22 00:21:00",1437448,9.2,164.9,3.198,0.769,11.34,102.5424,5.788,7.124,28.64,0,109.9,13.42,6.56,126.9
"2009-11-22 00:21:30",1437449,9.38,159.4,5.766,1.137,10.06,102.5424,5.788,7.035,28.32,0,109.9,13.42,6.56,121.4
"2009-11-22 00:22:00",1437450,7.646,155.6,6.199,1.238,8.25,102.5424,5.788,7.027,28.16,0,109.9,13.42,6.56,117.6
"2009-11-22 00:22:30",1437451,8.35,158.4,5.428,1.386,8.59,102.5412,5.785,6.821,27.81,0,109.9,13.42,6.56,120.4
"2009-11-22 00:23:00",1437452,8.15,155.6,6.38,1.454,9.49,102.5404,5.783,7.066,28.22,0,109.9,13.42,6.56,117.6
"2009-11-22 00:23:30",1437453,9.51,161.6,3.248,1.043,11.16,102.537,5.775,7.072,27.48,0,109.9,13.42,6.55,123.6
"2009-11-22 00:24:00",1437454,9.53,163.4,5.56,1.013,10.86,102.5347,5.769,7.078,27.84,0,109.9,13.42,6.54,125.4
"2009-11-22 00:24:30",1437455,8.29,159,8.16,1.218,8.72,102.5384,5.778,6.911,27.23,0,109.9,13.42,6.55,121.0
"2009-11-22 00:25:00",1437456,8.54,164.2,6.307,1.477,9.44,102.5393,5.781,6.943,27.11,0,109.9,13.42,6.55,126.2
"2009-11-22 00:25:30",1437457,6.663,167.2,4.079,1.205,7.264,102.543,5.79,6.831,28.2,0,109.9,13.42,6.56,129.2
"2009-11-22 00:26:00",1437458,7.233,170.2,7.24,1.207,9.84,102.5448,5.794,7.007,29.05,0,109.9,13.42,6.57,132.2
"2009-11-22 00:26:30",1437459,7.873,173.9,8.82,1.009,10.93,102.538,5.777,7.057,29.34,0,109.9,13.42,6.55,135.9
"2009-11-22 00:27:00",1437460,7.073,160.6,6.899,0.777,10.95,102.5285,5.753,7.068,29.63,0,109.9,13.43,6.53,122.6
"2009-11-22 00:27:30",1437461,6.568,152.9,10.71,1.103,8,102.5188,5.728,6.852,30,0,109.9,13.43,6.50,114.9
"2009-11-22 00:28:00",1437462,4.576,163.3,11.47,1.283,6.927,102.518,5.726,6.897,29.87,0,109.9,13.43,6.50,125.3
"2009-11-22 00:28:30",1437463,7.625,163.1,11.65,1.385,8.83,102.518,5.726,6.822,29.47,0,109.9,13.43,6.50,125.1
"2009-11-22 00:29:00",1437464,7.332,175.6,7.539,1.29,9.59,102.5186,5.728,6.944,28.8,0,109.9,13.43,6.50,137.6
"2009-11-22 00:29:30",1437465,7.959,176.1,8.21,1.183,11.27,102.5195,5.73,7.001,28.52,0,109.9,13.43,6.50,138.1
"2009-11-22 00:30:00",1437466,9.01,171.8,12.35,1.171,11.8,102.5232,5.74,7.043,26.61,0,109.9,13.42,6.51,133.8
"2009-11-22 00:30:30",1437467,7.524,172.9,11.35,1.688,10.11,102.527,5.749,6.899,26.2,0,109.9,13.42,6.52,134.9
"2009-11-22 00:31:00",1437468,6.533,151,3.537,1.101,6.345,102.5305,5.758,6.779,26.28,0,109.9,13.45,6.53,113.0
"2009-11-22 00:31:30",1437469,5.46,160.3,8.88,0.701,7.03,102.5322,5.762,6.856,27.36,0,109.9,13.43,6.53,122.3
"2009-11-22 00:32:00",1437470,6.751,187.1,4.531,1.16,9.69,102.5331,5.765,6.886,27.94,0,109.9,13.42,6.54,149.1
"2009-11-22 00:32:30",1437471,7.492,181.2,7.043,1.217,11.4,102.5351,5.77,6.985,28.17,0,109.9,13.42,6.54,143.2
"2009-11-22 00:33:00",1437472,7.799,183.5,8.56,1.183,11.34,102.5389,5.779,7.043,28.04,0,109.9,13.43,6.55,145.5
"2009-11-22 00:33:30",1437473,5.762,184.8,7.043,1.526,8.94,102.5377,5.777,6.919,28.46,0,109.9,13.42,6.55,146.8
"2009-11-22 00:34:00",1437474,5.581,195,16.88,1.155,6.882,102.5369,5.774,6.856,29.35,0,109.9,13.42,6.55,157.0
"2009-11-22 00:34:30",1437475,3.629,181.4,30.71,0.64,5.868,102.5366,5.774,6.73,28.9,0,109.9,13.46,6.55,143.4
"2009-11-22 00:35:00",1437476,5.132,170.9,12.64,1.562,8.54,102.5403,5.783,6.929,28.24,0,109.9,13.43,6.56,132.9
"2009-11-22 00:35:30",1437477,6.248,197.3,13.4,1.309,10.38,102.5424,5.788,6.976,28.27,0,109.9,13.43,6.56,159.3
"2009-11-22 00:36:00",1437478,7.797,178.8,7.478,0.619,11.98,102.5426,5.789,7.035,27.15,0,109.9,13.43,6.56,140.8
"2009-11-22 00:36:30",1437479,6.735,191.4,6.205,0.814,10.96,102.5432,5.791,7.018,27.35,0,109.9,13.43,6.56,153.4
"2009-11-22 00:37:00",1437480,6.455,180.1,5.447,1.384,7.931,102.5424,5.788,6.867,28.85,0,109.9,13.43,6.56,142.1
"2009-11-22 00:37:30",1437481,5.007,157.3,5.424,0.441,6.014,102.5427,5.789,6.725,28.39,0,109.9,13.47,6.56,119.3
"2009-11-22 00:38:00",1437482,5.131,168,5.215,0.718,7.012,102.5415,5.786,6.848,27.97,0,109.9,13.44,6.56,130.0
"2009-11-22 00:38:30",1437483,7.037,182.3,10.5,1.513,10.6,102.5373,5.775,6.976,28.56,0,109.9,13.44,6.55,144.3
"2009-11-22 00:39:00",1437484,8.73,174.8,7.319,0.947,11.9,102.5359,5.772,7.033,27.24,0,109.9,13.44,6.54,136.8
"2009-11-22 00:39:30",1437485,7.457,190.1,11.48,1.009,11.4,102.5373,5.775,7.03,27.27,0,109.9,13.44,6.55,152.1
"2009-11-22 00:40:00",1437486,7.069,166.5,12.82,1.326,9.36,102.537,5.775,6.884,27.36,0,109.9,13.44,6.55,128.5
"2009-11-22 00:40:30",1437487,5.226,166,4.433,0.41,6.134,102.5376,5.776,6.713,27.41,0,109.9,13.44,6.55,128.0
"2009-11-22 00:41:00",1437488,4.638,165.4,8.35,0.65,6.17,102.5393,5.78,6.731,27.92,0,109.9,13.47,6.55,127.4
"2009-11-22 00:41:30",1437489,7.179,172.8,7.379,1.451,9.11,102.5381,5.778,6.92,28.77,0,109.9,13.44,6.55,134.8
"2009-11-22 00:42:00",1437490,7.433,198.1,7.137,0.894,11.3,102.5353,5.77,7.039,29.06,0,109.9,13.45,6.54,160.1
"2009-11-22 00:42:30",1437491,6.432,179.6,10.77,1.03,11.09,102.5331,5.765,7.054,29.28,0,109.9,13.45,6.54,141.6
"2009-11-22 00:43:00",1437492,6.485,168.3,7.986,1.579,9.69,102.5237,5.741,6.904,29.63,0,109.9,13.44,6.51,130.3
"2009-11-22 00:43:30",1437493,5.196,153.1,6.972,1.181,6.446,102.5116,5.71,6.705,27.56,0,109.9,13.44,6.48,115.1
"2009-11-22 00:44:00",1437494,4.895,159.4,6.418,0.671,6.261,102.5099,5.705,6.712,27.35,0,109.9,13.48,6.48,121.4
"2009-11-22 00:44:30",1437495,6.685,171.3,9.57,1.29,8.94,102.5096,5.705,6.876,27.61,0,109.9,13.45,6.48,133.3
"2009-11-22 00:45:00",1437496,9.21,171.5,7.87,1.131,11.66,102.5093,5.704,7.024,27.28,0,109.9,13.45,6.48,133.5
"2009-11-22 00:45:30",1437497,9.36,177.5,5.573,0.801,11.99,102.5105,5.707,7.041,26.65,0,109.9,13.45,6.48,139.5
"2009-11-22 00:46:00",1437498,11.02,170.4,7.172,0.747,11.41,102.5147,5.718,7.021,27.13,0,109.9,13.45,6.49,132.4
"2009-11-22 00:46:30",1437499,8.44,163.8,8.48,1.861,8.68,102.5297,5.756,6.861,26.8,0,109.9,13.45,6.53,125.8
"2009-11-22 00:47:00",1437500,7.625,153.1,5.596,0.983,7.013,102.5345,5.768,6.754,27.02,0,109.9,13.44,6.54,115.1
"2009-11-22 00:47:30",1437501,8.23,150.7,5.954,1.674,8.61,102.5381,5.778,6.811,26.9,0,109.9,13.44,6.55,112.7
"2009-11-22 00:48:00",1437502,7.936,164.5,6.493,1.301,9.82,102.5418,5.787,6.995,27.87,0,109.9,13.44,6.56,126.5
"2009-11-22 00:48:30",1437503,10.5,161.7,6.44,1.332,11.86,102.543,5.79,7.048,27.31,0,109.9,13.44,6.56,123.7
"2009-11-22 00:49:00",1437504,10.13,166.7,6.866,1.512,11.24,102.5432,5.791,7.06,25.78,0,109.9,13.44,6.56,128.7
"2009-11-22 00:49:30",1437505,8.88,169.2,8.78,1.446,10.62,102.5432,5.791,6.974,25.68,0,109.9,13.44,6.56,131.2
"2009-11-22 00:50:00",1437506,8.58,161.8,8.45,1.152,9.36,102.5432,5.791,6.96,26.01,0,109.9,13.44,6.56,123.8
"2009-11-22 00:50:30",1437507,7.434,157.9,6.366,1.149,7.579,102.5432,5.791,6.814,26.01,0,109.9,13.44,6.56,119.9
"2009-11-22 00:51:00",1437508,9.21,168.1,5.485,1.485,10.24,102.5469,5.8,7.023,26.18,0,109.9,13.44,6.57,130.1
"2009-11-22 00:51:30",1437509,8.9,167.3,7.806,1.093,10.51,102.5602,5.834,7.023,26.78,0,109.9,13.44,6.61,129.3
"2009-11-22 00:52:00",1437510,7.898,177.1,7.686,1.192,10.43,102.5718,5.863,7.002,27.19,0,109.9,13.45,6.64,139.1
"2009-11-22 00:52:30",1437511,8.13,171.7,5.532,1.359,10.31,102.5743,5.87,7.074,27.95,0,109.9,13.45,6.64,133.7
"2009-11-22 00:53:00",1437512,9.22,166,6.505,0.883,10.18,102.5757,5.874,7.002,27.68,0,109.9,13.45,6.65,128.0
"2009-11-22 00:53:30",1437513,7.985,165.2,3.737,1.493,7.984,102.5766,5.876,6.908,27.52,0,109.9,13.45,6.65,127.2
"2009-11-22 00:54:00",1437514,8.22,163.1,6.401,1.525,9.04,102.5749,5.871,6.951,27,0,109.9,13.45,6.64,125.1
"2009-11-22 00:54:30",1437515,8.68,165.8,5.531,1.612,9.12,102.5738,5.869,6.998,26.03,0,109.9,13.45,6.64,127.8
"2009-11-22 00:55:00",1437516,9.11,167,6.194,1.486,10.26,102.576,5.874,7.071,26.23,0,109.9,13.45,6.65,129.0
"2009-11-22 00:55:30",1437517,9.67,167.1,7.111,1.467,10.91,102.5769,5.876,7.066,25.62,0,109.9,13.45,6.65,129.1
"2009-11-22 00:56:00",1437518,8.44,177.5,5.258,1.068,10.51,102.5771,5.877,7.063,26.2,0,109.9,13.45,6.65,139.5
"2009-11-22 00:56:30",1437519,8.67,168.8,7.515,1.407,9.38,102.5771,5.877,6.933,26.06,0,109.9,13.45,6.65,130.8
"2009-11-22 00:57:00",1437520,8.52,176.7,10.54,1.249,9.35,102.5771,5.877,7.029,26.42,0,109.9,13.45,6.65,138.7
"2009-11-22 00:57:30",1437521,7.974,162,6.407,0.94,8.05,102.5771,5.877,6.995,26.24,0,109.9,13.45,6.65,124.0
"2009-11-22 00:58:00",1437522,7.841,168,9.27,0.994,9.86,102.5771,5.877,7.121,26.32,0,109.9,13.45,6.65,130.0
"2009-11-22 00:58:30",1437523,7.964,177.1,9.18,1.199,10.52,102.5771,5.877,7.112,26.62,0,109.9,13.45,6.65,139.1
"2009-11-22 00:59:00",1437524,8.37,167.5,6.027,1.361,10.27,102.5771,5.877,7.039,26.77,0,109.9,13.45,6.65,129.5
"2009-11-22 00:59:30",1437525,7.595,161.9,11.02,1.051,8.92,102.5771,5.877,7.072,27.2,0,109.9,13.45,6.65,123.9
"2009-11-22 01:00:00",1437526,8.35,173.8,6.727,0.87,10.15,102.5774,5.878,7.105,27.62,0,109.9,13.45,6.65,135.8
"2009-11-22 01:00:30",1437527,6.503,174.6,7.485,1.677,8.05,102.5771,5.877,6.993,27.71,0,109.9,13.45,6.65,136.6
"2009-11-22 01:01:00",1437528,7.919,170.6,10.56,1.44,9.61,102.5777,5.879,6.982,27.01,0,109.9,13.45,6.65,132.6
"2009-11-22 01:01:30",1437529,6.663,172.5,9.18,1.326,9.64,102.578,5.879,7.077,27.69,0,109.9,13.45,6.65,134.5
"2009-11-22 01:02:00",1437530,7.25,174.5,10.16,1.168,9.79,102.5777,5.879,7.059,28.04,0,109.9,13.45,6.65,136.5
"2009-11-22 01:02:30",1437531,6.848,166.4,9.51,1.448,9.65,102.5721,5.864,7.046,28.12,0,109.9,13.45,6.64,128.4
"2009-11-22 01:03:00",1437532,7.928,173.8,4.238,1.313,10.21,102.5611,5.836,7.005,27.47,0,109.9,13.45,6.61,135.8
"2009-11-22 01:03:30",1437533,5.514,168.3,8.2,0.582,6.557,102.5543,5.819,6.9,26.09,0,109.9,13.45,6.59,130.3
"2009-11-22 01:04:00",1437534,7.027,175.1,10.39,1.331,9.45,102.5498,5.807,6.962,26.84,0,109.9,13.45,6.58,137.1
"2009-11-22 01:04:30",1437535,6.575,183.3,10.39,1.407,9.51,102.5467,5.799,7.078,27.28,0,109.9,13.45,6.57,145.3
"2009-11-22 01:05:00",1437536,6.237,174.9,5.894,1.243,10.16,102.5455,5.796,7.078,27.42,0,109.9,13.45,6.57,136.9
"2009-11-22 01:05:30",1437537,7.465,177.4,5.726,1.343,10.02,102.547,5.8,7.111,27.45,0,109.9,13.45,6.57,139.4
"2009-11-22 01:06:00",1437538,7.009,174.9,13.33,1.456,9.07,102.5476,5.802,7.058,27.63,0,109.9,13.45,6.57,136.9
"2009-11-22 01:06:30",1437539,5.543,167.3,10.31,1.425,8.5,102.5496,5.807,7.022,26.89,0,109.9,13.45,6.58,129.3
"2009-11-22 01:07:00",1437540,6.293,176.6,8.09,0.625,8.18,102.5499,5.808,6.875,26.9,0,109.9,13.45,6.58,138.6
"2009-11-22 01:07:30",1437541,6.817,166,7.773,1.218,9.06,102.5496,5.807,7.08,27.5,0,109.9,13.45,6.58,128.0
"2009-11-22 01:08:00",1437542,6.223,167.2,5.419,1.368,8.19,102.549,5.805,6.97,27.52,0,109.9,13.46,6.58,129.2
"2009-11-22 01:08:30",1437543,7.582,176.2,4.64,0.842,11.45,102.5522,5.814,7.141,26.9,0,109.9,13.46,6.59,138.2
"2009-11-22 01:09:00",1437544,6.772,169.3,7.082,1.193,9.59,102.5531,5.816,6.995,26.33,0,109.9,13.46,6.59,131.3
"2009-11-22 01:09:30",1437545,6.774,169,8.73,1.489,8.66,102.5545,5.819,7.011,26.55,0,109.9,13.46,6.59,131.0
"2009-11-22 01:10:00",1437546,5.777,166.7,7.062,1.022,7.288,102.5554,5.822,6.934,26.27,0,109.9,13.46,6.59,128.7
"2009-11-22 01:10:30",1437547,6.357,187.6,6.269,1.482,9.03,102.5569,5.825,6.925,26.92,0,109.9,13.46,6.60,149.6
"2009-11-22 01:11:00",1437548,5.603,161.9,9.11,0.932,8.16,102.558,5.828,6.954,27.24,0,109.9,13.46,6.60,123.9
"2009-11-22 01:11:30",1437549,6.818,179.3,7.806,0.594,11.51,102.5571,5.826,7.123,27.4,0,109.9,13.46,6.60,141.3
"2009-11-22 01:12:00",1437550,5.659,182.5,5.39,1.081,10.45,102.5606,5.835,6.945,27.29,0,109.9,13.46,6.61,144.5
"2009-11-22 01:12:30",1437551,5.141,171.4,4.318,1.069,6.525,102.5615,5.837,6.8,27.24,0,109.9,13.46,6.61,133.4
"2009-11-22 01:13:00",1437552,5.544,171.8,9.21,0.725,8.11,102.5589,5.831,6.942,26.77,0,109.9,13.46,6.60,133.8
"2009-11-22 01:13:30",1437553,4.11,160.5,3.422,0.353,6.504,102.5599,5.833,6.892,26.7,0,109.9,13.46,6.61,122.5
"2009-11-22 01:14:00",1437554,4.8,170.4,13.33,1.562,9.25,102.5584,5.829,6.919,27.09,0,109.9,13.46,6.60,132.4
"2009-11-22 01:14:30",1437555,5.898,186.4,6.266,0.86,11.04,102.5551,5.821,7.081,27.49,0,109.9,13.46,6.59,148.4
"2009-11-22 01:15:00",1437556,5.748,188.7,5.362,0.664,11.4,102.5486,5.804,7.121,27.77,0,109.9,13.46,6.58,150.7
"2009-11-22 01:15:30",1437557,3.218,170.2,7.406,0.679,6.589,102.5401,5.783,6.828,27.61,0,109.9,13.46,6.55,132.2
"2009-11-22 01:16:00",1437558,3.973,168.1,6.09,0.979,6.866,102.5356,5.771,6.905,27.45,0,109.9,13.46,6.54,130.1
"2009-11-22 01:16:30",1437559,3.686,180.7,7.251,1.398,6.976,102.5351,5.77,6.849,27.28,0,109.9,13.47,6.54,142.7
"2009-11-22 01:17:00",1437560,3.437,174,7.709,0.617,6.696,102.5371,5.775,6.814,27.52,0,109.9,13.5,6.55,136.0
"2009-11-22 01:17:30",1437561,5.192,165.3,7.87,1.22,8.53,102.5368,5.774,6.954,27.23,0,109.9,13.47,6.55,127.3
"2009-11-22 01:18:00",1437562,6.805,170.7,6.824,0.529,11.6,102.5374,5.776,7.073,27,0,109.9,13.47,6.55,132.7
"2009-11-22 01:18:30",1437563,6.362,180.7,9.41,0.848,11.41,102.5354,5.771,7.081,27.02,0,109.9,13.47,6.54,142.7
"2009-11-22 01:19:00",1437564,3.525,185,8.82,1.246,7.447,102.5386,5.779,6.867,27.18,0,109.9,13.47,6.55,147.0
"2009-11-22 01:19:30",1437565,4.372,179.9,15.36,1.435,7.29,102.5392,5.78,6.789,27.51,0,109.9,13.47,6.55,141.9
"2009-11-22 01:20:00",1437566,3.213,153.4,3.015,0.308,6.042,102.5397,5.782,6.834,27.3,0,109.9,13.5,6.55,115.4
"2009-11-22 01:20:30",1437567,2.862,156.7,6.184,0.322,6.056,102.5418,5.787,6.757,27.33,0,109.9,13.5,6.56,118.7
"2009-11-22 01:21:00",1437568,4.156,152,6.526,1.381,9.24,102.5412,5.785,6.943,27.57,0,109.9,13.47,6.56,114.0
"2009-11-22 01:21:30",1437569,4.667,155.6,10.18,1.028,10.76,102.5387,5.779,7.043,27.78,0,109.9,13.47,6.55,117.6
"2009-11-22 01:22:00",1437570,4.293,141,12.86,1.213,10.09,102.5353,5.77,6.931,27.75,0,109.9,13.47,6.54,103.0
"2009-11-22 01:22:30",1437571,3.253,132.9,9.03,1.181,7.819,102.5274,5.75,6.842,27.9,0,109.9,13.47,6.52,94.9
"2009-11-22 01:23:00",1437572,2.593,151.2,6.472,1.135,7.183,102.5141,5.716,6.877,27.9,0,109.9,13.47,6.49,113.2
"2009-11-22 01:23:30",1437573,1.527,136.4,5.464,0.229,5.509,102.5102,5.706,6.715,27.78,0,109.9,13.5,6.48,98.4
"2009-11-22 01:24:00",1437574,1.85,132,8.47,0.705,5.863,102.5099,5.705,6.719,27.9,0,109.9,13.47,6.48,94.0
"2009-11-22 01:24:30",1437575,2.998,145.9,18.76,1.293,8.18,102.5099,5.705,6.863,28.06,0,109.9,13.47,6.48,107.9
"2009-11-22 01:25:00",1437576,2.907,145.8,11.92,1.354,8.51,102.5099,5.705,6.811,28.03,0,109.8,13.47,6.48,107.8
"2009-11-22 01:25:30",1437577,3.582,144.1,8.73,1.118,9.89,102.5099,5.705,6.9,28.1,0,109.9,13.47,6.48,106.1
"2009-11-22 01:26:00",1437578,2.426,136.6,13.2,0.991,7.698,102.5102,5.706,6.917,28.28,0,109.9,13.47,6.48,98.6
"2009-11-22 01:26:30",1437579,3.663,155.1,7.432,1.042,7.945,102.5099,5.705,6.773,27.96,0,109.9,13.47,6.48,117.1
"2009-11-22 01:27:00",1437580,2.98,140,3.786,0.19,5.594,102.5034,5.689,6.761,27.79,0,109.9,13.51,6.46,102.0
"2009-11-22 01:27:30",1437581,3.435,139.9,8.5,1.018,6.721,102.4941,5.665,6.681,27.86,0,109.9,13.47,6.44,101.9
"2009-11-22 01:28:00",1437582,3.518,148.5,6.975,1.311,8.24,102.4782,5.625,6.808,28,0,109.9,13.48,6.40,110.5
"2009-11-22 01:28:30",1437583,3.819,144.3,6.462,1.186,8.53,102.4762,5.619,6.821,28.15,0,109.9,13.48,6.39,106.3
"2009-11-22 01:29:00",1437584,3.8,142.8,5.729,1.224,9.79,102.4762,5.619,6.886,28.42,0,109.8,13.48,6.39,104.8
"2009-11-22 01:29:30",1437585,4.32,159.9,8.73,0.959,10.24,102.4762,5.619,6.818,28.61,0,109.9,13.48,6.39,121.9
"2009-11-22 01:30:00",1437586,1.943,148.3,9.41,1.105,6.87,102.4762,5.619,6.775,28.76,0,109.9,13.48,6.39,110.3
"2009-11-22 01:30:30",1437587,1.624,132.7,11.79,0.194,5.35,102.4757,5.618,6.613,28.56,0,109.9,13.51,6.39,94.7
"2009-11-22 01:31:00",1437588,2.826,153.3,7.316,1.301,6.505,102.4678,5.598,6.602,28.4,0,109.9,13.48,6.37,115.3
"2009-11-22 01:31:30",1437589,3.065,154.5,8.29,1.215,7.901,102.4505,5.554,6.739,27.88,0,109.9,13.48,6.33,116.5
"2009-11-22 01:32:00",1437590,1.815,144.6,6.734,0.489,6.514,102.4432,5.535,6.607,27.6,0,109.9,13.51,6.31,106.6
"2009-11-22 01:32:30",1437591,3.781,157.6,10.27,1.1,10,102.4423,5.533,6.809,28,0,109.9,13.48,6.30,119.6
"2009-11-22 01:33:00",1437592,3.787,161.1,6.575,1.206,10.01,102.4423,5.533,6.818,28.23,0,109.9,13.48,6.30,123.1
"2009-11-22 01:33:30",1437593,3.354,167,9.43,1.162,9.18,102.4423,5.533,6.712,28.06,0,109.9,13.48,6.30,129.0
"2009-11-22 01:34:00",1437594,1.963,149.5,10.04,0.181,5.584,102.4423,5.533,6.574,27.95,0,109.9,13.51,6.30,111.5
"2009-11-22 01:34:30",1437595,2.663,167.7,5.265,1.067,6.264,102.4423,5.533,6.542,27.89,0,109.9,13.48,6.30,129.7
"2009-11-22 01:35:00",1437596,2.994,169.7,6.667,1.201,7.887,102.437,5.519,6.671,27.86,0,109.9,13.48,6.29,131.7
"2009-11-22 01:35:30",1437597,2.003,179.1,5.027,0.184,6.273,102.4293,5.5,6.522,27.93,0,109.9,13.48,6.27,141.1
"2009-11-22 01:36:00",1437598,2.292,177.6,12.91,1.185,7.563,102.4245,5.487,6.521,27.87,0,109.9,13.48,6.26,139.6
"2009-11-22 01:36:30",1437599,3.202,196.8,10.32,1.249,10.13,102.4166,5.467,6.807,28.22,0,109.9,13.48,6.24,158.8
"2009-11-22 01:37:00",1437600,3.334,191.7,8.45,0.975,10.81,102.4098,5.45,6.758,28.17,0,109.9,13.48,6.22,153.7
"2009-11-22 01:37:30",1437601,1.416,201.5,9.64,0.092,5.834,102.4084,5.446,6.582,28.04,0,109.9,13.51,6.22,163.5
"2009-11-22 01:38:00",1437602,1.212,204.5,7.959,0.137,4.91,102.4084,5.446,6.49,28.02,0,109.9,13.51,6.22,166.5
"2009-11-22 01:38:30",1437603,1.115,172.7,17.34,0.529,5.646,102.4084,5.446,6.615,28.38,0,109.8,13.48,6.22,134.7
"2009-11-22 01:39:00",1437604,1.871,152.4,11.77,1.275,6.92,102.4084,5.446,6.544,28.46,0,109.9,13.48,6.22,114.4
"2009-11-22 01:39:30",1437605,1.409,180.8,11.69,1.202,6.83,102.4084,5.446,6.585,28.64,0,109.8,13.48,6.22,142.8
"2009-11-22 01:40:00",1437606,0.527,166.7,6.91,0.15,5.646,102.4061,5.44,6.459,28.79,0,109.9,13.51,6.21,128.7
"2009-11-22 01:40:30",1437607,0.676,188.2,4.188,0.07,5.921,102.3996,5.424,6.446,29.01,0,109.9,13.52,6.19,150.2
"2009-11-22 01:41:00",1437608,1.982,182.5,7.012,1.235,9.39,102.3833,5.382,6.698,29.31,0,109.8,13.49,6.15,144.5
"2009-11-22 01:41:30",1437609,3.195,189.7,15.44,0.954,10.96,102.3748,5.36,6.74,29.33,0,109.8,13.49,6.13,151.7
"2009-11-22 01:42:00",1437610,2.269,203.2,7.214,1.411,6.924,102.3745,5.36,6.414,28.53,0,109.8,13.49,6.13,165.2
"2009-11-22 01:42:30",1437611,1.172,176.1,10.66,0.085,5.075,102.3745,5.36,6.411,28.55,0,109.8,13.52,6.13,138.1
"2009-11-22 01:43:00",1437612,1.215,155.5,5.596,0.782,6.243,102.3745,5.36,6.538,29.02,0,109.8,13.49,6.13,117.5
"2009-11-22 01:43:30",1437613,0.779,174.6,10.26,1.165,6.333,102.3745,5.36,6.434,29.16,0,109.8,13.49,6.13,136.6
"2009-11-22 01:44:00",1437614,0.428,159.2,7.177,0.088,5.142,102.3745,5.36,6.389,29.23,0,109.8,13.52,6.13,121.2
"2009-11-22 01:44:30",1437615,0.39,141,13.86,0.111,5.282,102.3745,5.36,6.365,29.23,0,109.8,13.53,6.13,103.0
"2009-11-22 01:45:00",1437616,0.625,134.3,3.794,0.105,5.565,102.3745,5.36,6.357,29.25,0,109.8,13.53,6.13,96.3
"2009-11-22 01:45:30",1437617,0.851,139.3,6.089,0.478,6.384,102.368,5.343,6.443,29.33,0,109.8,13.5,6.11,101.3
"2009-11-22 01:46:00",1437618,2.847,157,8.74,0.997,10.46,102.3502,5.297,6.643,29.55,0,109.8,13.5,6.07,119.0
"2009-11-22 01:46:30",1437619,1.585,144.5,10.52,1.263,8.5,102.3414,5.275,6.53,29.4,0,109.8,13.5,6.05,106.5
"2009-11-22 01:47:00",1437620,0.34,138.5,6.183,0.093,5.335,102.3406,5.273,6.345,29.31,0,109.8,13.53,6.04,100.5
"2009-11-22 01:47:30",1437621,0.396,130.6,12.34,0.519,5.232,102.3406,5.273,6.461,29.45,0,109.8,13.5,6.04,92.6
"2009-11-22 01:48:00",1437622,1.065,165.2,9.7,1.156,6.104,102.3406,5.273,6.381,29.39,0,109.8,13.5,6.04,127.2
"2009-11-22 01:48:30",1437623,0.622,174.5,9.03,0.634,5.715,102.3406,5.273,6.41,29.31,0,109.8,13.5,6.04,136.5